Time,TemperatureF,DewpointF,PressureIn,WindDirection,WindDirectionDegrees,WindSpeedMPH,WindSpeedGustMPH,Humidity,HourlyPrecipIn,Conditions,Clouds,dailyrainin,SoftwareType,DateUTC
2013-03-12 00:03:00,31.0,-99.9,-100.00,WNW,296,12.0,16.0,-999,0.00,,,0.03,,2013-03-12 05:03:00,
2013-03-12 00:12:00,30.0,-99.9,-100.00,WNW,291,14.0,18.0,-999,0.00,,,0.03,,2013-03-12 05:12:00,
2013-03-12 00:22:00,30.0,-99.9,-100.00,WNW,291,14.0,18.0,-999,0.00,,,0.03,,2013-03-12 05:22:00,
2013-03-12 00:33:00,30.0,-99.9,-100.00,WNW,284,13.0,17.0,-999,0.00,,,0.03,,2013-03-12 05:33:00,
2013-03-12 00:42:00,30.0,-99.9,-100.00,WNW,284,13.0,17.0,-999,0.00,,,0.03,,2013-03-12 05:42:00,
2013-03-12 00:52:00,30.0,-99.9,-100.00,WNW,284,13.0,17.0,-999,0.00,,,0.03,,2013-03-12 05:52:00,
2013-03-12 01:02:00,30.0,-99.9,-100.00,WNW,284,13.0,17.0,-999,0.00,,,0.03,,2013-03-12 06:02:00,
2013-03-12 01:12:00,30.0,-99.9,-100.00,WNW,289,12.0,15.0,-999,0.00,,,0.03,,2013-03-12 06:12:00,
2013-03-12 01:22:00,30.0,-99.9,-100.00,WNW,289,12.0,15.0,-999,0.00,,,0.03,,2013-03-12 06:22:00,
2013-03-12 01:32:00,30.0,-99.9,-100.00,WNW,289,12.0,15.0,-999,0.00,,,0.03,,2013-03-12 06:32:00,
2013-03-12 01:40:00,29.0,-99.9,-100.00,West,277,9.0,12.0,-999,0.00,,,0.03,,2013-03-12 06:40:00,
2013-03-12 01:42:00,29.0,-99.9,-100.00,WNW,284,9.0,12.0,-999,0.00,,,0.03,,2013-03-12 06:42:00,
2013-03-12 01:52:00,29.0,-99.9,-100.00,WNW,284,9.0,12.0,-999,0.00,,,0.03,,2013-03-12 06:52:00,
2013-03-12 02:02:00,29.0,-99.9,-100.00,WNW,284,9.0,12.0,-999,0.00,,,0.03,,2013-03-12 07:02:00,
2013-03-12 02:12:00,29.0,-99.9,-100.00,West,277,9.0,12.0,-999,0.00,,,0.03,,2013-03-12 07:12:00,
2013-03-12 02:22:00,29.0,-99.9,-100.00,West,277,9.0,12.0,-999,0.00,,,0.03,,2013-03-12 07:22:00,
2013-03-12 02:32:00,29.0,-99.9,-100.00,West,277,9.0,12.0,-999,0.00,,,0.03,,2013-03-12 07:32:00,
2013-03-12 03:13:00,28.0,-99.9,-100.00,West,263,8.0,10.0,-999,0.00,,,0.02,,2013-03-12 08:13:00,
2013-03-12 03:22:00,28.0,-99.9,-100.00,West,263,8.0,10.0,-999,0.00,,,0.02,,2013-03-12 08:22:00,
2013-03-12 03:33:00,28.0,-99.9,-100.00,West,263,8.0,10.0,-999,0.00,,,0.02,,2013-03-12 08:33:00,
2013-03-12 03:43:00,28.0,-99.9,-100.00,West,265,8.0,13.0,-999,0.00,,,0.02,,2013-03-12 08:43:00,
2013-03-12 03:52:00,28.0,-99.9,-100.00,West,265,8.0,13.0,-999,0.00,,,0.02,,2013-03-12 08:52:00,
2013-03-12 04:03:00,28.0,-99.9,-100.00,West,265,8.0,13.0,-999,0.00,,,0.02,,2013-03-12 09:03:00,
2013-03-12 04:12:00,28.0,-99.9,-100.00,West,267,7.0,9.0,-999,0.00,,,0.02,,2013-03-12 09:12:00,
2013-03-12 04:22:00,28.0,-99.9,-100.00,West,267,7.0,9.0,-999,0.00,,,0.02,,2013-03-12 09:22:00,
2013-03-12 04:33:00,28.0,-99.9,-100.00,West,267,7.0,9.0,-999,0.00,,,0.02,,2013-03-12 09:33:00,
2013-03-12 04:43:00,27.0,-99.9,-100.00,West,264,8.0,10.0,-999,0.00,,,0.02,,2013-03-12 09:43:00,
2013-03-12 04:53:00,27.0,-99.9,-100.00,West,264,8.0,10.0,-999,0.00,,,0.02,,2013-03-12 09:53:00,
2013-03-12 05:02:00,27.0,-99.9,-100.00,West,264,8.0,10.0,-999,0.00,,,0.02,,2013-03-12 10:02:00,
2013-03-12 05:12:00,27.0,-99.9,-100.00,West,265,7.0,10.0,-999,0.00,,,0.02,,2013-03-12 10:12:00,
2013-03-12 05:23:00,27.0,-99.9,-100.00,West,265,7.0,10.0,-999,0.00,,,0.02,,2013-03-12 10:23:00,
2013-03-12 05:33:00,27.0,-99.9,-100.00,West,266,9.0,11.0,-999,0.00,,,0.02,,2013-03-12 10:33:00,
2013-03-12 05:42:00,27.0,-99.9,-100.00,West,266,9.0,11.0,-999,0.00,,,0.02,,2013-03-12 10:42:00,
2013-03-12 05:53:00,27.0,-99.9,-100.00,West,266,9.0,11.0,-999,0.00,,,0.02,,2013-03-12 10:53:00,
2013-03-12 06:02:00,27.0,-99.9,-100.00,West,266,9.0,11.0,-999,0.00,,,0.02,,2013-03-12 11:02:00,
2013-03-12 06:12:00,27.0,-99.9,-100.00,WSW,256,8.0,11.0,-999,0.00,,,0.02,,2013-03-12 11:12:00,
2013-03-12 06:22:00,27.0,-99.9,-100.00,WSW,256,8.0,11.0,-999,0.00,,,0.02,,2013-03-12 11:22:00,
2013-03-12 06:33:00,27.0,-99.9,-100.00,WSW,256,8.0,11.0,-999,0.00,,,0.02,,2013-03-12 11:33:00,
2013-03-12 06:43:00,27.0,-99.9,-100.00,WSW,255,9.0,11.0,-999,0.00,,,0.02,,2013-03-12 11:43:00,
2013-03-12 06:52:00,27.0,-99.9,-100.00,WSW,255,9.0,11.0,-999,0.00,,,0.02,,2013-03-12 11:52:00,
2013-03-12 07:03:00,27.0,-99.9,-100.00,WSW,255,9.0,11.0,-999,0.00,,,0.02,,2013-03-12 12:03:00,
2013-03-12 07:12:00,28.0,-99.9,-100.00,West,270,10.0,12.0,-999,0.00,,,0.02,,2013-03-12 12:12:00,
2013-03-12 07:22:00,28.0,-99.9,-100.00,West,270,10.0,12.0,-999,0.00,,,0.02,,2013-03-12 12:22:00,
2013-03-12 07:32:00,28.0,-99.9,-100.00,West,270,10.0,12.0,-999,0.00,,,0.02,,2013-03-12 12:32:00,
2013-03-12 07:42:00,28.0,-99.9,-100.00,West,275,9.0,11.0,-999,0.00,,,0.02,,2013-03-12 12:42:00,
2013-03-12 07:52:00,28.0,-99.9,-100.00,West,275,9.0,11.0,-999,0.00,,,0.02,,2013-03-12 12:52:00,
2013-03-12 08:03:00,28.0,-99.9,-100.00,West,275,9.0,11.0,-999,0.00,,,0.02,,2013-03-12 13:03:00,
2013-03-12 08:12:00,28.0,-99.9,-100.00,West,260,10.0,13.0,-999,0.00,,,0.01,,2013-03-12 13:12:00,
2013-03-12 08:22:00,28.0,-99.9,-100.00,West,260,10.0,13.0,-999,0.00,,,0.01,,2013-03-12 13:22:00,
2013-03-12 08:33:00,28.0,-99.9,-100.00,West,260,10.0,13.0,-999,0.00,,,0.01,,2013-03-12 13:33:00,
2013-03-12 08:43:00,30.0,-99.9,-100.00,West,267,9.0,13.0,-999,0.00,,,0.01,,2013-03-12 13:43:00,
2013-03-12 08:53:00,30.0,-99.9,-100.00,West,267,9.0,13.0,-999,0.00,,,0.01,,2013-03-12 13:53:00,
2013-03-12 09:03:00,30.0,-99.9,-100.00,West,267,9.0,13.0,-999,0.00,,,0.01,,2013-03-12 14:03:00,
2013-03-12 09:12:00,30.0,-99.9,-100.00,West,260,10.0,13.0,-999,0.00,,,0.01,,2013-03-12 14:12:00,
2013-03-12 09:22:00,30.0,-99.9,-100.00,West,260,10.0,13.0,-999,0.00,,,0.01,,2013-03-12 14:22:00,
2013-03-12 09:34:00,30.0,-99.9,-100.00,West,260,10.0,13.0,-999,0.00,,,0.01,,2013-03-12 14:34:00,
2013-03-12 09:43:00,31.0,-99.9,-100.00,West,265,10.0,14.0,-999,0.00,,,0.01,,2013-03-12 14:43:00,
2013-03-12 09:53:00,31.0,-99.9,-100.00,West,265,10.0,14.0,-999,0.00,,,0.01,,2013-03-12 14:53:00,
2013-03-12 10:03:00,31.0,-99.9,-100.00,West,265,10.0,14.0,-999,0.00,,,0.01,,2013-03-12 15:03:00,
2013-03-12 10:13:00,32.0,-99.9,-100.00,West,264,12.0,16.0,-999,0.00,,,0.01,,2013-03-12 15:13:00,
2013-03-12 10:23:00,32.0,-99.9,-100.00,West,264,12.0,16.0,-999,0.00,,,0.01,,2013-03-12 15:23:00,
2013-03-12 10:33:00,32.0,-99.9,-100.00,West,264,12.0,16.0,-999,0.00,,,0.01,,2013-03-12 15:33:00,
2013-03-12 10:43:00,33.0,-99.9,-100.00,West,268,10.0,13.0,-999,0.00,,,0.01,,2013-03-12 15:43:00,
2013-03-12 10:54:00,33.0,-99.9,-100.00,West,268,10.0,13.0,-999,0.00,,,0.01,,2013-03-12 15:54:00,
2013-03-12 11:03:00,33.0,-99.9,-100.00,West,268,10.0,13.0,-999,0.00,,,0.01,,2013-03-12 16:03:00,
2013-03-12 11:10:00,36.0,-99.9,-100.00,WSW,251,10.0,13.0,-999,0.00,,,0.01,,2013-03-12 16:10:00,
2013-03-12 11:13:00,34.0,-99.9,-100.00,WSW,255,7.0,10.0,-999,0.00,,,0.01,,2013-03-12 16:13:00,
2013-03-12 11:23:00,34.0,-99.9,-100.00,WSW,255,7.0,10.0,-999,0.00,,,0.01,,2013-03-12 16:23:00,
2013-03-12 11:33:00,34.0,-99.9,-100.00,WSW,255,7.0,10.0,-999,0.00,,,0.01,,2013-03-12 16:33:00,
2013-03-12 11:40:00,33.0,-99.9,-100.00,West,262,13.0,15.0,-999,0.00,,,0.00,,2013-03-12 16:40:00,
2013-03-12 11:43:00,36.0,-99.9,-100.00,WSW,251,10.0,13.0,-999,0.00,,,0.01,,2013-03-12 16:43:00,
2013-03-12 11:53:00,36.0,-99.9,-100.00,WSW,251,10.0,13.0,-999,0.00,,,0.01,,2013-03-12 16:53:00,
2013-03-12 12:03:00,36.0,-99.9,-100.00,WSW,251,10.0,13.0,-999,0.00,,,0.01,,2013-03-12 17:03:00,
2013-03-12 12:10:00,32.0,-99.9,-100.00,WSW,251,15.0,20.0,-999,0.00,,,0.00,,2013-03-12 17:10:00,
2013-03-12 12:34:00,33.0,-99.9,-100.00,West,262,13.0,15.0,-999,0.00,,,0.00,,2013-03-12 17:34:00,
2013-03-12 12:40:00,33.0,-99.9,-100.00,West,260,15.0,18.0,-999,0.00,,,0.00,,2013-03-12 17:40:00,
2013-03-12 12:54:00,32.0,-99.9,-100.00,WSW,251,15.0,20.0,-999,0.00,,,0.00,,2013-03-12 17:54:00,
2013-03-12 13:03:00,32.0,-99.9,-100.00,WSW,251,15.0,20.0,-999,0.00,,,0.00,,2013-03-12 18:03:00,
2013-03-12 13:33:00,33.0,-99.9,-100.00,West,260,15.0,18.0,-999,0.00,,,0.00,,2013-03-12 18:33:00,
2013-03-12 14:13:00,33.0,-99.9,-100.00,West,267,11.0,16.0,-999,0.00,,,0.00,,2013-03-12 19:13:00,
2013-03-12 14:23:00,33.0,-99.9,-100.00,West,267,11.0,16.0,-999,0.00,,,0.00,,2013-03-12 19:23:00,
2013-03-12 14:33:00,33.0,-99.9,-100.00,West,267,11.0,16.0,-999,0.00,,,0.00,,2013-03-12 19:33:00,
2013-03-12 14:44:00,34.0,-99.9,-100.00,West,266,13.0,18.0,-999,0.00,,,0.00,,2013-03-12 19:44:00,
2013-03-12 14:53:00,34.0,-99.9,-100.00,West,266,13.0,18.0,-999,0.00,,,0.00,,2013-03-12 19:53:00,
2013-03-12 15:02:00,34.0,-99.9,-100.00,West,266,13.0,18.0,-999,0.00,,,0.00,,2013-03-12 20:02:00,
2013-03-12 15:13:00,35.0,-99.9,-100.00,West,275,13.0,16.0,-999,0.00,,,0.00,,2013-03-12 20:13:00,
2013-03-12 15:23:00,35.0,-99.9,-100.00,West,275,13.0,16.0,-999,0.00,,,0.00,,2013-03-12 20:23:00,
2013-03-12 15:33:00,35.0,-99.9,-100.00,West,275,13.0,16.0,-999,0.00,,,0.00,,2013-03-12 20:33:00,
2013-03-12 15:42:00,35.0,-99.9,-100.00,WNW,285,19.0,27.0,-999,0.00,,,0.00,,2013-03-12 20:42:00,
2013-03-12 15:53:00,35.0,-99.9,-100.00,WNW,285,19.0,27.0,-999,0.00,,,0.00,,2013-03-12 20:53:00,
2013-03-12 16:03:00,35.0,-99.9,-100.00,WNW,285,19.0,27.0,-999,0.00,,,0.00,,2013-03-12 21:03:00,
2013-03-12 16:13:00,33.0,-99.9,-100.00,WNW,287,20.0,23.0,-999,0.00,,,0.00,,2013-03-12 21:13:00,
2013-03-12 16:23:00,33.0,-99.9,-100.00,WNW,287,20.0,23.0,-999,0.00,,,0.00,,2013-03-12 21:23:00,
2013-03-12 16:33:00,33.0,-99.9,-100.00,WNW,287,20.0,23.0,-999,0.00,,,0.00,,2013-03-12 21:33:00,
2013-03-12 16:43:00,34.0,-99.9,-100.00,West,281,15.0,20.0,-999,0.00,,,0.00,,2013-03-12 21:43:00,
2013-03-12 16:53:00,34.0,-99.9,-100.00,West,281,15.0,20.0,-999,0.00,,,0.00,,2013-03-12 21:53:00,
2013-03-12 17:03:00,34.0,-99.9,-100.00,West,281,15.0,20.0,-999,0.00,,,0.00,,2013-03-12 22:03:00,
2013-03-12 17:13:00,34.0,-99.9,-100.00,West,276,18.0,30.0,-999,0.00,,,0.00,,2013-03-12 22:13:00,
2013-03-12 17:23:00,34.0,-99.9,-100.00,West,276,18.0,30.0,-999,0.00,,,0.00,,2013-03-12 22:23:00,
2013-03-12 17:33:00,32.0,-99.9,-100.00,WNW,291,14.0,20.0,-999,0.00,,,0.00,,2013-03-12 22:33:00,
2013-03-12 17:43:00,32.0,-99.9,-100.00,WNW,291,14.0,20.0,-999,0.00,,,0.00,,2013-03-12 22:43:00,
2013-03-12 17:54:00,32.0,-99.9,-100.00,WNW,291,14.0,20.0,-999,0.00,,,0.00,,2013-03-12 22:54:00,
2013-03-12 18:03:00,32.0,-99.9,-100.00,WNW,291,14.0,20.0,-999,0.00,,,0.00,,2013-03-12 23:03:00,
2013-03-12 18:13:00,32.0,-99.9,-100.00,WNW,295,14.0,19.0,-999,0.00,,,0.00,,2013-03-12 23:13:00,
2013-03-12 18:23:00,32.0,-99.9,-100.00,WNW,295,14.0,19.0,-999,0.00,,,0.00,,2013-03-12 23:23:00,
2013-03-12 18:34:00,32.0,-99.9,-100.00,WNW,297,18.0,23.0,-999,0.00,,,0.00,,2013-03-12 23:34:00,
2013-03-12 18:44:00,32.0,-99.9,-100.00,WNW,297,18.0,23.0,-999,0.00,,,0.00,,2013-03-12 23:44:00,
2013-03-12 18:53:00,32.0,-99.9,-100.00,WNW,297,18.0,23.0,-999,0.00,,,0.00,,2013-03-12 23:53:00,
2013-03-12 19:03:00,32.0,-99.9,-100.00,WNW,297,18.0,23.0,-999,0.00,,,0.00,,2013-03-13 00:03:00,
2013-03-12 19:13:00,31.0,-99.9,-100.00,WNW,300,18.0,24.0,-999,0.00,,,0.00,,2013-03-13 00:13:00,
2013-03-12 19:23:00,31.0,-99.9,-100.00,WNW,300,18.0,24.0,-999,0.00,,,0.00,,2013-03-13 00:23:00,
2013-03-12 19:33:00,30.0,-99.9,-100.00,WNW,302,24.0,28.0,-999,0.00,,,0.00,,2013-03-13 00:33:00,
2013-03-12 19:43:00,30.0,-99.9,-100.00,WNW,302,24.0,28.0,-999,0.00,,,0.00,,2013-03-13 00:43:00,
2013-03-12 19:54:00,30.0,-99.9,-100.00,WNW,302,24.0,28.0,-999,0.00,,,0.00,,2013-03-13 00:54:00,
2013-03-12 20:03:00,30.0,-99.9,-100.00,WNW,302,24.0,28.0,-999,0.00,,,0.00,,2013-03-13 01:03:00,
2013-03-12 20:13:00,30.0,-99.9,-100.00,WNW,296,18.0,22.0,-999,0.00,,,0.00,,2013-03-13 01:13:00,
2013-03-12 20:22:00,30.0,-99.9,-100.00,WNW,296,18.0,22.0,-999,0.00,,,0.00,,2013-03-13 01:22:00,
2013-03-12 20:33:00,29.0,-99.9,-100.00,WNW,294,18.0,23.0,-999,0.00,,,0.00,,2013-03-13 01:33:00,
2013-03-12 20:43:00,29.0,-99.9,-100.00,WNW,294,18.0,23.0,-999,0.00,,,0.00,,2013-03-13 01:43:00,
2013-03-12 20:53:00,29.0,-99.9,-100.00,WNW,294,18.0,23.0,-999,0.00,,,0.00,,2013-03-13 01:53:00,
2013-03-12 21:03:00,29.0,-99.9,-100.00,WNW,294,18.0,23.0,-999,0.00,,,0.00,,2013-03-13 02:03:00,
2013-03-12 21:12:00,29.0,-99.9,-100.00,WNW,297,19.0,24.0,-999,0.00,,,0.00,,2013-03-13 02:12:00,
2013-03-12 21:23:00,29.0,-99.9,-100.00,WNW,297,19.0,24.0,-999,0.00,,,0.00,,2013-03-13 02:23:00,
2013-03-12 21:33:00,29.0,-99.9,-100.00,WNW,297,19.0,24.0,-999,0.00,,,0.00,,2013-03-13 02:33:00,
2013-03-12 21:43:00,28.0,-99.9,-100.00,NW,308,19.0,28.0,-999,0.00,,,0.00,,2013-03-13 02:43:00,
2013-03-12 21:53:00,28.0,-99.9,-100.00,NW,308,19.0,28.0,-999,0.00,,,0.00,,2013-03-13 02:53:00,
2013-03-12 22:03:00,28.0,-99.9,-100.00,NW,308,19.0,28.0,-999,0.00,,,0.00,,2013-03-13 03:03:00,
2013-03-12 22:13:00,29.0,-99.9,-100.00,WNW,303,16.0,21.0,-999,0.00,,,0.00,,2013-03-13 03:13:00,
2013-03-12 22:23:00,29.0,-99.9,-100.00,WNW,303,16.0,21.0,-999,0.00,,,0.00,,2013-03-13 03:23:00,
2013-03-12 22:33:00,29.0,-99.9,-100.00,WNW,303,16.0,21.0,-999,0.00,,,0.00,,2013-03-13 03:33:00,
2013-03-12 22:43:00,29.0,-99.9,-100.00,WNW,302,23.0,34.0,-999,0.00,,,0.00,,2013-03-13 03:43:00,
2013-03-12 22:53:00,29.0,-99.9,-100.00,WNW,302,23.0,34.0,-999,0.00,,,0.00,,2013-03-13 03:53:00,
2013-03-12 23:03:00,29.0,-99.9,-100.00,WNW,302,23.0,34.0,-999,0.00,,,0.00,,2013-03-13 04:03:00,
2013-03-12 23:13:00,28.0,-99.9,-100.00,WNW,300,17.0,22.0,-999,0.00,,,0.00,,2013-03-13 04:13:00,
2013-03-12 23:23:00,28.0,-99.9,-100.00,WNW,300,17.0,22.0,-999,0.00,,,0.00,,2013-03-13 04:23:00,
2013-03-12 23:33:00,28.0,-99.9,-100.00,WNW,301,15.0,18.0,-999,0.00,,,0.00,,2013-03-13 04:33:00,
2013-03-12 23:43:00,28.0,-99.9,-100.00,WNW,301,15.0,18.0,-999,0.00,,,0.00,,2013-03-13 04:43:00,
2013-03-12 23:53:00,28.0,-99.9,-100.00,WNW,301,15.0,18.0,-999,0.00,,,0.00,,2013-03-13 04:53:00,